STARLINK-30098 (56292 NORAD) Tracking and Keplerian Element Data

This shows tracking and keplerian element data for the satellite.

Feedback or suggestion? Click here.




ElementValue
Catalog56292
NameSTARLINK-30098
Epoch Orbit324
Epoch Day127.25001157
Epoch Year2023
RAAN97.7619
Inclination43.0026
Eccentricity0.0001416
Argument of Perigee271.9193
Mean Anonmoly116.5896
Mean Motion15.39961481
Decay Rate-0.0135525
L11 56292U 23056G 23127.25001157 -.01355250 00000+0 -36443-1 0 9999
L22 56292 43.0026 97.7619 0001416 271.9193 116.5896 15.39961481 3246



Live tracking and technical data element details for STARLINK-30098 (NORAD 56292). STARLINK-30098 can be tracked NOW for your location showing map with azimuth and elevation plus other details from your city location.







IsCatalogInMostPopularTable: catalog: 56292, numindb: 4
Update: records affected: 1



GetName: 56292 STARLINK-30098

Hit Count: updated at: Wed, 07 Jun 2023 07:56:14 GMT